Date String (YYYY-MM-DD hh:mm:ss) UTC,Instrument flags,Ambient pressure (hPa),Sample flow (lpm),Bypass flow (lpm),Sample temperature (°C),Ambient temperature (°C),ASC tube jacket temperature (°C),LED temperature (°C),Box temperature (°C),Sample RH (%),Span deviation,Mass concentration (μg/m³),Mass concentration (μg/m³),Mass concentration (μg/m³)
DateTimeUTC,F1_M11,P_M11,Q1_M11,Q2_M11,T1_M11,T2_M11,T3_M11,T4_M11,T5_M11,U1_M11,ZSPAN_M11,X2_M11,X0_M11,X1_M11
2022-02-21 18:00:00,,0811.7,5.00,0.00,24.3,23.5,00.0,33.3,26.1,12.2,0001.1,0005.06,0013.63,0004.08
2022-02-21 18:01:00,,0811.8,5.01,0.00,24.3,23.5,00.0,33.3,26.1,12.3,0001.5,0005.00,0014.21,0004.08
2022-02-21 18:02:00,,0811.9,5.00,0.00,24.2,23.5,00.0,33.3,26.0,12.4,0001.6,0004.98,0014.78,0004.08
2022-02-21 18:03:00,,0811.9,4.99,0.00,24.2,23.4,00.0,33.2,26.0,12.4,0001.6,0004.96,0015.08,0004.09
2022-02-21 18:04:00,,0811.9,5.01,0.00,24.2,23.3,00.0,33.2,26.0,12.2,0001.3,0004.95,0016.12,0004.09
2022-02-21 18:05:00,,0811.9,5.00,0.00,24.2,23.3,00.0,33.2,25.9,12.3,0001.1,0004.94,0016.29,0004.09
2022-02-21 18:06:00,,0811.9,5.01,0.00,24.1,23.3,00.0,33.2,25.9,12.4,0000.6,0004.94,0015.69,0004.09
2022-02-21 18:07:00,,0812.0,4.99,0.00,24.1,23.2,00.0,33.2,25.9,12.4,0000.3,0004.94,0015.27,0004.08
2022-02-21 18:08:00,,0812.0,5.02,0.00,24.1,23.2,00.0,33.2,25.9,12.5,0000.0,0004.95,0014.88,0004.09
2022-02-21 18:09:00,,0812.0,4.99,0.00,24.0,23.2,00.0,33.1,25.9,12.5,0000.0,0004.97,0014.78,0004.09
2022-02-21 18:10:00,,0812.1,5.00,0.00,24.0,23.1,00.0,33.1,25.8,12.4,0000.0,0005.01,0014.96,0004.10
2022-02-21 18:11:00,,0812.2,5.01,0.00,24.0,23.1,00.0,33.1,25.7,12.4,0000.0,0005.02,0015.23,0004.10
2022-02-21 18:12:00,,0812.3,4.99,0.00,24.0,23.1,00.0,33.1,25.7,12.4,0000.0,0005.05,0015.06,0004.10
2022-02-21 18:13:00,,0812.4,5.01,0.00,23.9,23.1,00.0,33.1,25.7,12.6,0000.0,0005.11,0014.10,0004.12
2022-02-21 18:14:00,,0812.5,4.99,0.00,23.9,23.1,00.0,33.1,25.7,12.4,0000.0,0005.14,0013.38,0004.13
2022-02-21 18:15:00,,0812.5,5.00,0.00,23.9,23.1,00.0,33.0,25.6,12.4,0000.0,0005.14,0012.95,0004.13
2022-02-21 18:16:00,,0812.7,5.02,0.00,23.9,23.0,00.0,33.0,25.6,12.2,0000.0,0005.12,0012.98,0004.13
2022-02-21 18:17:00,,0812.7,4.99,0.00,23.9,23.0,00.0,33.0,25.6,12.2,0000.0,0005.16,0012.49,0004.14
2022-02-21 18:18:00,,0812.8,5.02,0.00,23.9,23.1,00.0,33.0,25.6,12.4,0000.0,0005.15,0012.00,0004.15
2022-02-21 18:19:00,,0812.9,4.99,0.00,23.9,23.1,00.0,33.0,25.6,12.1,0000.0,0005.17,0012.04,0004.16
2022-02-21 18:20:00,,0812.9,5.02,0.00,23.9,23.1,00.0,32.9,25.6,12.2,0000.0,0005.21,0012.35,0004.19
2022-02-21 18:21:00,,0812.9,5.00,0.00,23.9,23.1,00.0,32.9,25.6,12.2,0000.0,0005.19,0012.28,0004.18
2022-02-21 18:22:00,,0812.9,5.00,0.00,23.8,23.1,00.0,32.9,25.6,12.0,0000.0,0005.16,0012.04,0004.18
2022-02-21 18:23:00,,0812.8,4.99,0.00,23.8,23.1,00.0,32.9,25.6,12.2,0000.0,0005.17,0011.59,0004.19
2022-02-21 18:24:00,,0812.8,5.02,0.00,23.8,23.1,00.0,32.9,25.5,12.2,0000.0,0005.11,0011.15,0004.19
2022-02-21 18:25:00,,0812.8,4.99,0.00,23.8,23.0,00.0,32.9,25.5,12.3,0000.0,0005.07,0011.06,0004.19
2022-02-21 18:26:00,,0812.9,5.01,0.00,23.8,23.0,00.0,32.9,25.5,12.4,0000.0,0005.08,0010.73,0004.21
2022-02-21 18:27:00,,0813.0,5.02,0.00,23.8,23.0,00.0,32.9,25.5,12.2,0000.0,0005.13,0011.28,0004.22
2022-02-21 18:28:00,,0813.1,5.00,0.00,23.8,23.0,00.0,32.9,25.6,12.3,-000.1,0005.17,0011.26,0004.25
2022-02-21 18:29:00,,0813.0,4.99,0.00,23.8,23.1,00.0,32.8,25.6,12.2,0000.0,0005.21,0011.40,0004.27
2022-02-21 18:30:00,,0813.0,5.01,0.00,23.8,23.1,00.0,32.8,25.6,12.2,0000.0,0005.18,0011.42,0004.27
2022-02-21 18:31:00,,0813.0,4.99,0.00,23.8,23.1,00.0,32.8,25.6,12.0,0000.0,0005.12,0012.04,0004.27
2022-02-21 18:32:00,,0813.0,5.00,0.00,23.8,23.1,00.0,32.8,25.6,12.1,0000.2,0005.18,0012.54,0004.29
2022-02-21 18:33:00,,0813.0,4.99,0.00,23.8,23.2,00.0,32.8,25.7,12.0,0000.8,0005.24,0012.89,0004.33
2022-02-21 18:34:00,,0812.9,5.01,0.00,23.9,23.2,00.0,32.8,25.7,12.0,0001.2,0005.31,0013.07,0004.36
2022-02-21 18:35:00,,0812.9,4.99,0.00,23.9,23.2,00.0,32.8,25.7,12.0,0001.2,0005.39,0013.22,0004.39
2022-02-21 18:36:00,,0813.0,5.01,0.00,23.9,23.3,00.0,32.8,25.7,12.1,0001.2,0005.44,0013.16,0004.41
2022-02-21 18:37:00,,0813.0,5.00,0.00,23.9,23.3,00.0,32.8,25.7,12.0,0001.3,0005.48,0013.20,0004.44
2022-02-21 18:38:00,,0813.0,5.00,0.00,23.9,23.3,00.0,32.9,25.7,11.9,0001.2,0005.47,0012.32,0004.45
2022-02-21 18:39:00,,0813.1,5.01,0.00,23.9,23.3,00.0,32.9,25.7,11.7,0001.6,0005.43,0011.95,0004.45
2022-02-21 18:40:00,,0813.2,5.01,0.00,23.9,23.3,00.0,32.8,25.8,11.7,0001.2,0005.48,0011.97,0004.46
2022-02-21 18:41:00,,0813.2,4.98,0.00,23.9,23.3,00.0,32.9,25.8,11.9,0001.2,0005.49,0012.69,0004.48
2022-02-21 18:42:00,,0813.2,4.98,0.00,23.9,23.3,00.0,32.9,25.8,11.8,0001.5,0005.58,0012.25,0004.52
2022-02-21 18:43:00,,0813.2,4.99,0.00,23.9,23.2,00.0,32.9,25.8,11.8,0001.1,0005.57,0011.60,0004.56
2022-02-21 18:44:00,,0813.3,5.01,0.00,23.9,23.2,00.0,32.9,25.7,11.8,0001.1,0005.55,0011.27,0004.56
2022-02-21 18:45:00,,0813.3,4.99,0.00,23.9,23.2,00.0,32.9,25.7,11.7,0000.4,0005.56,0012.00,0004.58
2022-02-21 18:46:00,,0813.3,5.02,0.00,23.9,23.2,00.0,32.9,25.7,11.7,0000.1,0005.53,0011.88,0004.60
2022-02-21 18:47:00,,0813.3,4.99,0.00,23.9,23.2,00.0,32.9,25.6,11.7,0000.5,0005.57,0012.43,0004.63
2022-02-21 18:48:00,,0813.4,5.01,0.00,23.9,23.2,00.0,32.9,25.6,11.5,0001.4,0005.58,0012.31,0004.65
2022-02-21 18:49:00,,0813.5,4.99,0.00,23.9,23.2,00.0,32.9,25.6,11.5,0001.4,0005.60,0012.61,0004.68
2022-02-21 18:50:00,,0813.5,5.00,0.00,23.9,23.2,00.0,32.9,25.6,11.4,0001.2,0005.63,0013.11,0004.72
2022-02-21 18:51:00,,0813.5,5.01,0.00,23.9,23.2,00.0,32.9,25.6,11.3,0001.6,0005.62,0013.12,0004.76
2022-02-21 18:52:00,,0813.5,4.98,0.00,23.9,23.2,00.0,32.9,25.6,11.2,0002.2,0005.65,0012.76,0004.78
2022-02-21 18:53:00,,0813.4,5.01,0.00,23.9,23.2,00.0,32.9,25.6,11.1,0002.4,0005.61,0012.41,0004.78
2022-02-21 18:54:00,,0813.4,4.99,0.00,23.9,23.1,00.0,32.8,25.6,11.0,0002.7,0005.65,0012.61,0004.80
2022-02-21 18:55:00,,0813.4,5.00,0.00,23.8,23.1,00.0,32.8,25.6,11.1,0002.7,0005.65,0013.31,0004.80
2022-02-21 18:56:00,,0813.4,4.99,0.00,23.8,23.1,00.0,32.8,25.6,11.1,0003.3,0005.64,0012.89,0004.81
2022-02-21 18:57:00,,0813.4,5.00,0.00,23.8,23.1,00.0,32.8,25.5,11.1,0002.7,0005.68,0013.21,0004.83
2022-02-21 18:58:00,,0813.5,5.01,0.00,23.8,23.1,00.0,32.8,25.6,11.2,0002.3,0005.69,0013.07,0004.84
2022-02-21 18:59:00,,0813.5,4.99,0.00,23.8,23.1,00.0,32.8,25.6,11.1,0001.8,0005.72,0013.45,0004.84
